Outer Banks, North Carolina, United States
Lat: 35.98N, Lon: 75.65W
Wx Zone: NCZ103
Local Info
Past Weather Observations for Today

NOTE: This archive is for the closest National Weather Service station to Outer Banks. Information may differ from the station used for current weather conditions.

Click here for Long-term Archive

Time Weather Temperature Dewpoint Humidity Pressure Winds Precip Visibility
18:55
Clear
70°F / 21°C 64°F / 18°C 83% 30.01 in
(1016 mb)
NE 5.8 mph
(NE 9 kph)
- 10SM
18:35
Clear
70°F / 21°C 64°F / 18°C 83% 30.01 in
(1016 mb)
NNE 8.1 mph
(NNE 13 kph)
- 10SM
18:15
Partly Cloudy
70°F / 21°C 64°F / 18°C 83% 30.01 in
(1016 mb)
NE 6.9 mph
(NE 11 kph)
- 10SM
17:55
Partly Cloudy
70°F / 21°C 64°F / 18°C 83% 29.98 in
(1015 mb)
NE 6.9 mph
(NE 11 kph)
- 10SM
17:35
Clear
70°F / 21°C 64°F / 18°C 83% 29.98 in
(1015 mb)
NNE 5.8 mph
(NNE 9 kph)
- 10SM
17:15
Clear
70°F / 21°C 64°F / 18°C 83% 29.98 in
(1015 mb)
NNE 8.1 mph
(NNE 13 kph)
- 10SM
16:55
Clear
72°F / 22°C 64°F / 18°C 78% 29.98 in
(1015 mb)
NNE 8.1 mph
(NNE 13 kph)
- 10SM
16:35
Clear
72°F / 22°C 64°F / 18°C 78% 29.98 in
(1015 mb)
NNE 4.6 mph
(NNE 7 kph)
- 10SM
16:15
Clear
72°F / 22°C 64°F / 18°C 78% 29.98 in
(1015 mb)
N 8.1 mph
(N 13 kph)
- 10SM
15:55
Clear
72°F / 22°C 64°F / 18°C 78% 29.98 in
(1015 mb)
NE 8.1 mph
(NE 13 kph)
- 10SM
15:35
Partly Cloudy
72°F / 22°C 64°F / 18°C 78% 29.98 in
(1015 mb)
NNE 10.4 mph
(NNE 17 kph)
- 10SM
15:15
Partly Cloudy
73°F / 23°C 63°F / 17°C 69% 29.98 in
(1015 mb)
N 8.1 mph
(N 13 kph)
- 10SM
14:55
Partly Cloudy
73°F / 23°C 64°F / 18°C 74% 29.98 in
(1015 mb)
NNE 10.4 mph
(NNE 17 kph)
- 10SM
14:35
Partly Cloudy
73°F / 23°C 63°F / 17°C 69% 29.98 in
(1015 mb)
N 5.8 mph
(N 9 kph)
- 10SM
14:15
Partly Cloudy
73°F / 23°C 63°F / 17°C 69% 29.98 in
(1015 mb)
N 9.2 mph
(N 15 kph)
- 10SM
13:55
Partly Cloudy
73°F / 23°C 63°F / 17°C 69% 29.98 in
(1015 mb)
N 9.2 mph
(N 15 kph)
- 10SM
13:35
Partly Cloudy
73°F / 23°C 64°F / 18°C 74% 29.98 in
(1015 mb)
N 8.1 mph
(N 13 kph)
- 10SM
13:15
Partly Cloudy
73°F / 23°C 64°F / 18°C 74% 29.98 in
(1015 mb)
N 11.5 mph
(N 19 kph)
- 10SM
12:55
Partly Cloudy
73°F / 23°C 63°F / 17°C 69% 29.98 in
(1015 mb)
N 10.4 mph
(N 17 kph)
- 10SM
12:35
Partly Cloudy
73°F / 23°C 63°F / 17°C 69% 29.98 in
(1015 mb)
N 9.2 mph
(N 15 kph)
- 10SM
12:15
Partly Cloudy
73°F / 23°C 63°F / 17°C 69% 29.98 in
(1015 mb)
N 10.4 mph
(N 17 kph)
- 10SM
11:55
Partly Cloudy
73°F / 23°C 64°F / 18°C 74% 29.98 in
(1015 mb)
N 9.2 mph
(N 15 kph)
- 10SM
11:35
Partly Cloudy
73°F / 23°C 64°F / 18°C 74% 29.98 in
(1015 mb)
NNE 10.4 mph
(NNE 17 kph)
- 10SM
11:15
Partly Cloudy
75°F / 24°C 64°F / 18°C 69% 29.98 in
(1015 mb)
N 9.2 mph
(N 15 kph)
- 10SM
10:55
Partly Cloudy
73°F / 23°C 64°F / 18°C 74% 29.98 in
(1015 mb)
N 5.8 mph
(N 9 kph)
- 10SM
10:35
Clear
73°F / 23°C 64°F / 18°C 74% 29.98 in
(1015 mb)
N 6.9 mph
(N 11 kph)
- 10SM
10:15
Clear
73°F / 23°C 64°F / 18°C 74% 29.98 in
(1015 mb)
N 10.4 mph
(N 17 kph)
- 10SM
09:55
Clear
73°F / 23°C 64°F / 18°C 74% 29.98 in
(1015 mb)
N 6.9 mph
(N 11 kph)
- 10SM
09:35
Clear
73°F / 23°C 64°F / 18°C 74% 29.98 in
(1015 mb)
NNE 9.2 mph
(NNE 15 kph)
- 10SM
09:15
Partly Cloudy
73°F / 23°C 64°F / 18°C 74% 29.98 in
(1015 mb)
NNE 5.8 mph
(NNE 9 kph)
- 10SM
08:55
Clear
72°F / 22°C 64°F / 18°C 78% 29.98 in
(1015 mb)
N 9.2 mph
(N 15 kph)
- 10SM
08:35
Partly Cloudy
72°F / 22°C 64°F / 18°C 78% 29.95 in
(1014 mb)
N 8.1 mph
(N 13 kph)
- 10SM
08:15
Partly Cloudy
72°F / 22°C 64°F / 18°C 78% 29.95 in
(1014 mb)
N 6.9 mph
(N 11 kph)
- 10SM
07:55
Partly Cloudy
72°F / 22°C 64°F / 18°C 78% 29.95 in
(1014 mb)
NNE 6.9 mph
(NNE 11 kph)
- 10SM
07:35
Partly Cloudy
70°F / 21°C 64°F / 18°C 83% 29.95 in
(1014 mb)
N 8.1 mph
(N 13 kph)
- 10SM
07:15
Clear
70°F / 21°C 64°F / 18°C 83% 29.95 in
(1014 mb)
N 6.9 mph
(N 11 kph)
- 10SM
06:55
Clear
70°F / 21°C 63°F / 17°C 78% 29.95 in
(1014 mb)
N 5.8 mph
(N 9 kph)
- 10SM
06:35
Clear
70°F / 21°C 63°F / 17°C 78% 29.92 in
(1013 mb)
N 5.8 mph
(N 9 kph)
- 10SM
06:15
Clear
68°F / 20°C 63°F / 17°C 83% 29.92 in
(1013 mb)
N 4.6 mph
(N 7 kph)
- 10SM
05:55
Clear
68°F / 20°C 63°F / 17°C 83% 29.92 in
(1013 mb)
NNE 5.8 mph
(NNE 9 kph)
- 10SM
05:35
Clear
68°F / 20°C 63°F / 17°C 83% 29.92 in
(1013 mb)
NNE 5.8 mph
(NNE 9 kph)
- 10SM
05:15
Clear
68°F / 20°C 63°F / 17°C 83% 29.89 in
(1012 mb)
NNE 8.1 mph
(NNE 13 kph)
- 10SM
04:55
Clear
70°F / 21°C 63°F / 17°C 78% 29.89 in
(1012 mb)
NNE 4.6 mph
(NNE 7 kph)
- 10SM
04:35
Clear
70°F / 21°C 63°F / 17°C 78% 29.89 in
(1012 mb)
NNE 8.1 mph
(NNE 13 kph)
- 10SM
04:15
Clear
68°F / 20°C 63°F / 17°C 83% 29.89 in
(1012 mb)
NNE 9.2 mph
(NNE 15 kph)
- 10SM
03:55
Clear
70°F / 21°C 63°F / 17°C 78% 29.89 in
(1012 mb)
NE 5.8 mph
(NE 9 kph)
- 10SM
03:35
Partly Cloudy
70°F / 21°C 64°F / 18°C 83% 29.89 in
(1012 mb)
N 6.9 mph
(N 11 kph)
- 10SM
03:15
Partly Cloudy
70°F / 21°C 64°F / 18°C 83% 29.89 in
(1012 mb)
N 6.9 mph
(N 11 kph)
- 10SM
02:55
Partly Cloudy
70°F / 21°C 64°F / 18°C 83% 29.89 in
(1012 mb)
N 6.9 mph
(N 11 kph)
- 10SM
02:35
Partly Cloudy
70°F / 21°C 64°F / 18°C 83% 29.89 in
(1012 mb)
NNE 4.6 mph
(NNE 7 kph)
- 10SM
02:15
Clear
70°F / 21°C 64°F / 18°C 83% 29.89 in
(1012 mb)
NNE 8.1 mph
(NNE 13 kph)
- 10SM
01:55
Partly Cloudy
70°F / 21°C 64°F / 18°C 83% 29.89 in
(1012 mb)
NNE 5.8 mph
(NNE 9 kph)
- 10SM
01:35
Partly Cloudy
70°F / 21°C 64°F / 18°C 83% 29.89 in
(1012 mb)
N 5.8 mph
(N 9 kph)
- 10SM
01:15
Mostly Cloudy
70°F / 21°C 66°F / 19°C 88% 29.89 in
(1012 mb)
NNE 3.5 mph
(NNE 6 kph)
- 10SM
00:55
Mostly Cloudy
70°F / 21°C 66°F / 19°C 88% 29.89 in
(1012 mb)
NNE 4.6 mph
(NNE 7 kph)
- 10SM
00:35
Partly Cloudy
70°F / 21°C 64°F / 18°C 83% 29.89 in
(1012 mb)
NNE 4.6 mph
(NNE 7 kph)
- 10SM
00:15
Clear
68°F / 20°C 64°F / 18°C 88% 29.89 in
(1012 mb)
N 3.5 mph
(N 6 kph)
- 10SM
Time Weather Temperature Dewpoint Humidity Pressure Winds Precip Visibility


Weather for websites

WeatherForYou.com, LLC is not responsible for any damages or problems caused by this service. Current weather conditions are obtained from the closest station including government and personal stations which may have varying degrees of accuracy. Weather forecasts are derived from the NOAA NDFD. Like all things, this site belongs to Jesus Christ... He just trusts me to maintain it. If you have any questions or comments email webmaster@weatherforyou.com

Copyright © 2014, WeatherForYou.com LLC. All rights reserved.